Location: Austin
(30.3000°N, 97.7500°W)
Time: 22:42:33
(UTC-05:00)

Cosmos 1954 Rocket - Pass Details

Date: 06 May 2026
Orbit: 748 x 776 km, 74.0° (Epoch: 13 May)

Event Time Altitude Azimuth Distance (km) Brightness Sun altitude
Rises 22:18:43 0° 339° (NNW) 3,206 8.2 -24.6°
Reaches altitude 10° 22:21:06 10° 337° (NNW) 2,275 7.3 -24.9°
Maximum altitude 22:26:11 63° 257° (WSW) 831 4.2 -25.8°
Enters shadow 22:26:59 55° 213° (SSW) 895 4.2 -25.9°
